Date String (YYYY-MM-DD hh:mm:ss) UTC,Instrument flags,absolute air pressure of the measurement (hPa),sample flow rate (lpm),inlet stack bypass flow (lpm),air temperature of the measurement (°C),ambient temperature measured by the external sensor (°C),aerosol sample conditioner tube jacket temperature (°C),OPC LED temperature (°C),internal box temperature (°C),relative humidity of the measurement (%),span deviation,mass concentration of particles derived from Lorenz-Mie calculation of OPC scattering (μg/m³),mass concentration of particles derived from Lorenz-Mie calculation of OPC scattering (μg/m³),mass concentration of particles derived from Lorenz-Mie calculation of OPC scattering (μg/m³)
DateTimeUTC,F1_M11,P_M11,Q1_M11,Q2_M11,T1_M11,T2_M11,T3_M11,T4_M11,T5_M11,U1_M11,ZSPAN_M11,X0_M11,X2_M11,X1_M11
2024-06-15 11:00:00,SystemResetWarning,0827.6,5.00,000.00,031.0,030.3,000.0,039.3,032.6,034.6,0000.9,0025.51,0012.21,0010.07
2024-06-15 11:01:00,SystemResetWarning,0827.6,5.00,000.00,031.0,030.3,000.0,039.3,032.6,034.6,0000.7,0025.62,0012.27,0010.08
2024-06-15 11:02:00,SystemResetWarning,0827.6,5.00,000.00,031.0,030.3,000.0,039.3,032.7,034.8,0000.5,0025.03,0012.16,0010.07
2024-06-15 11:03:00,SystemResetWarning,0827.6,5.00,000.00,031.0,030.3,000.0,039.3,032.7,034.7,0000.7,0024.43,0012.10,0010.04
2024-06-15 11:04:00,SystemResetWarning,0827.6,5.00,000.00,031.0,030.3,000.0,039.3,032.7,034.7,0000.8,0023.71,0012.11,0010.02
2024-06-15 11:05:00,SystemResetWarning,0827.6,5.00,000.00,031.0,030.3,000.0,039.3,032.7,034.7,0000.6,0023.14,0012.16,0010.06
2024-06-15 11:06:00,SystemResetWarning,0827.7,5.01,000.00,031.0,030.3,000.0,039.4,032.7,034.7,0000.3,0022.98,0012.20,0010.08
2024-06-15 11:07:00,SystemResetWarning,0827.7,5.00,000.00,031.0,030.3,000.0,039.4,032.7,034.6,0000.5,0022.60,0012.24,0010.08
2024-06-15 11:08:00,SystemResetWarning,0827.7,5.00,000.00,031.0,030.3,000.0,039.4,032.7,034.4,0000.4,0022.68,0012.14,0010.05
2024-06-15 11:09:00,SystemResetWarning,0827.7,5.00,000.00,031.0,030.3,000.0,039.4,032.7,034.4,0000.4,0022.78,0012.08,0010.03
2024-06-15 11:10:00,SystemResetWarning,0827.7,5.00,000.00,031.0,030.3,000.0,039.4,032.7,034.4,0000.5,0022.80,0012.08,0010.03
2024-06-15 11:11:00,SystemResetWarning,0827.7,5.00,000.00,031.0,030.3,000.0,039.4,032.7,034.3,0000.7,0023.33,0012.12,0010.04
2024-06-15 11:12:00,SystemResetWarning,0827.7,5.01,000.00,031.0,030.3,000.0,039.4,032.7,033.8,0000.5,0023.02,0012.06,0010.04
2024-06-15 11:13:00,SystemResetWarning,0827.7,5.00,000.00,031.0,030.3,000.0,039.4,032.8,033.1,0000.6,0024.31,0012.02,0009.99
2024-06-15 11:14:00,SystemResetWarning,0827.7,4.99,000.00,031.1,030.4,000.0,039.4,032.8,032.8,0000.5,0025.36,0011.94,0009.89
2024-06-15 11:15:00,SystemResetWarning,0827.7,5.00,000.00,031.1,030.4,000.0,039.4,032.8,033.5,0000.5,0025.66,0011.85,0009.80
2024-06-15 11:16:00,SystemResetWarning,0827.7,5.00,000.00,031.1,030.4,000.0,039.5,032.8,033.8,0001.0,0026.35,0011.78,0009.77
2024-06-15 11:17:00,SystemResetWarning,0827.7,5.00,000.00,031.1,030.4,000.0,039.5,032.8,034.0,0001.3,0026.54,0011.71,0009.73
2024-06-15 11:18:00,SystemResetWarning,0827.7,5.00,000.00,031.1,030.4,000.0,039.5,032.8,034.2,0001.3,0026.21,0011.64,0009.72
2024-06-15 11:19:00,SystemResetWarning,0827.7,4.99,000.00,031.1,030.4,000.0,039.5,032.8,034.1,0001.1,0026.29,0011.72,0009.73
2024-06-15 11:20:00,SystemResetWarning,0827.7,4.99,000.00,031.1,030.4,000.0,039.5,032.8,034.2,0001.5,0025.80,0011.74,0009.72
2024-06-15 11:21:00,SystemResetWarning,0827.7,5.00,000.00,031.1,030.4,000.0,039.5,032.8,034.2,0001.4,0025.21,0011.73,0009.72
2024-06-15 11:22:00,SystemResetWarning,0827.8,5.00,000.00,031.1,030.5,000.0,039.5,032.8,034.2,0001.4,0024.58,0011.71,0009.71
2024-06-15 11:23:00,SystemResetWarning,0827.7,5.00,000.00,031.2,030.5,000.0,039.5,032.9,034.2,0001.6,0024.97,0011.77,0009.72
2024-06-15 11:24:00,SystemResetWarning,0827.8,5.01,000.00,031.2,030.5,000.0,039.5,032.9,034.2,0001.6,0024.79,0011.87,0009.79
2024-06-15 11:25:00,SystemResetWarning,0827.8,5.00,000.00,031.2,030.5,000.0,039.5,032.9,034.1,0001.4,0024.42,0012.06,0009.91
2024-06-15 11:26:00,SystemResetWarning,0827.8,5.00,000.00,031.2,030.5,000.0,039.5,032.9,034.1,0001.1,0024.72,0012.20,0010.02
2024-06-15 11:27:00,SystemResetWarning,0827.8,5.01,000.00,031.2,030.5,000.0,039.6,032.9,034.0,0000.8,0023.84,0012.25,0010.03
2024-06-15 11:28:00,SystemResetWarning,0827.8,4.99,000.00,031.2,030.5,000.0,039.6,032.9,033.9,0000.5,0023.30,0012.27,0010.03
2024-06-15 11:29:00,SystemResetWarning,0827.8,4.99,000.00,031.2,030.5,000.0,039.6,032.9,033.7,0000.3,0023.24,0012.26,0010.03
2024-06-15 11:30:00,SystemResetWarning,0827.8,4.99,000.00,031.2,030.5,000.0,039.6,032.9,033.6,0000.2,0023.37,0012.20,0010.01
2024-06-15 11:31:00,SystemResetWarning,0827.7,5.01,000.00,031.2,030.5,000.0,039.6,032.9,033.6,-000.1,0024.45,0012.19,0010.02
2024-06-15 11:32:00,SystemResetWarning,0827.8,5.01,000.00,031.2,030.5,000.0,039.6,032.9,033.6,-000.2,0025.33,0012.24,0010.03
2024-06-15 11:33:00,SystemResetWarning,0827.8,5.00,000.00,031.2,030.5,000.0,039.6,032.9,033.5,-000.2,0025.42,0012.25,0010.04
2024-06-15 11:34:00,SystemResetWarning,0827.7,4.99,000.00,031.3,030.5,000.0,039.6,032.9,033.5,-000.2,0025.20,0012.16,0010.01
2024-06-15 11:35:00,SystemResetWarning,0827.7,5.00,000.00,031.3,030.5,000.0,039.6,032.9,033.8,-000.1,0025.01,0012.13,0010.00
2024-06-15 11:36:00,SystemResetWarning,0827.7,5.00,000.00,031.3,030.5,000.0,039.6,032.9,033.9,0000.1,0024.98,0012.07,0009.99
2024-06-15 11:37:00,SystemResetWarning,0827.9,4.99,000.00,031.3,030.6,000.0,039.7,032.9,033.8,0000.5,0024.87,0012.07,0009.99
2024-06-15 11:38:00,SystemResetWarning,0827.8,5.00,000.00,031.3,030.6,000.0,039.7,033.0,033.8,0000.4,0024.70,0012.08,0010.00
2024-06-15 11:39:00,SystemResetWarning,0827.9,5.00,000.00,031.3,030.6,000.0,039.7,033.0,033.8,0000.5,0025.04,0012.07,0010.01
2024-06-15 11:40:00,SystemResetWarning,0827.7,5.00,000.00,031.3,030.6,000.0,039.7,033.0,033.7,0001.1,0025.18,0012.14,0010.05
2024-06-15 11:41:00,SystemResetWarning,0827.8,4.99,000.00,031.3,030.6,000.0,039.7,033.0,033.8,0001.1,0025.04,0012.19,0010.09
2024-06-15 11:42:00,SystemResetWarning,0827.8,5.00,000.00,031.3,030.6,000.0,039.7,033.0,033.8,0000.7,0024.75,0012.24,0010.09
2024-06-15 11:43:00,SystemResetWarning,0827.8,5.00,000.00,031.3,030.6,000.0,039.7,033.0,033.9,0000.5,0023.97,0012.20,0010.07
2024-06-15 11:44:00,SystemResetWarning,0827.7,5.00,000.00,031.3,030.6,000.0,039.7,033.0,034.2,0001.0,0024.16,0012.15,0010.06
2024-06-15 11:45:00,SystemResetWarning,0827.7,5.00,000.00,031.3,030.6,000.0,039.7,033.0,034.2,0000.8,0024.85,0012.22,0010.07
2024-06-15 11:46:00,SystemResetWarning,0827.7,5.00,000.00,031.3,030.6,000.0,039.7,033.0,034.2,0000.3,0024.67,0012.25,0010.11
2024-06-15 11:47:00,SystemResetWarning,0827.7,5.00,000.00,031.3,030.6,000.0,039.7,033.0,034.2,0000.1,0024.66,0012.25,0010.12
2024-06-15 11:48:00,SystemResetWarning,0827.7,5.00,000.00,031.3,030.6,000.0,039.7,033.0,034.1,-000.2,0024.76,0012.21,0010.13
2024-06-15 11:49:00,SystemResetWarning,0827.7,5.00,000.00,031.3,030.6,000.0,039.7,033.0,034.2,-000.2,0025.10,0012.18,0010.15
2024-06-15 11:50:00,SystemResetWarning,0827.7,5.00,000.00,031.3,030.6,000.0,039.7,033.0,034.3,-000.3,0025.38,0012.20,0010.17
2024-06-15 11:51:00,SystemResetWarning,0827.7,5.00,000.00,031.3,030.6,000.0,039.8,033.0,034.3,-000.9,0025.77,0012.14,0010.19
2024-06-15 11:52:00,SystemResetWarning,0827.7,5.00,000.00,031.3,030.6,000.0,039.8,033.0,034.4,-001.1,0025.85,0012.11,0010.19
2024-06-15 11:53:00,SystemResetWarning,0827.7,5.01,000.00,031.3,030.6,000.0,039.8,033.0,034.5,-000.9,0024.93,0012.06,0010.22
2024-06-15 11:54:00,SystemResetWarning,0827.7,5.00,000.00,031.3,030.6,000.0,039.8,033.0,034.6,-000.6,0025.39,0012.03,0010.26
2024-06-15 11:55:00,SystemResetWarning,0827.7,5.00,000.00,031.3,030.5,000.0,039.8,033.0,034.6,-001.0,0024.92,0012.03,0010.30
2024-06-15 11:56:00,SystemResetWarning,0827.7,5.00,000.00,031.3,030.5,000.0,039.8,033.0,034.5,-001.1,0024.02,0012.05,0010.33
2024-06-15 11:57:00,SystemResetWarning,0827.7,5.00,000.00,031.3,030.5,000.0,039.8,033.0,034.6,-000.9,0023.38,0012.06,0010.34
2024-06-15 11:58:00,SystemResetWarning,0827.7,5.01,000.00,031.3,030.5,000.0,039.8,033.0,034.7,-000.7,0023.13,0012.08,0010.32
2024-06-15 11:59:00,SystemResetWarning,0827.7,5.00,000.00,031.3,030.5,000.0,039.8,033.0,034.7,-000.5,0023.91,0012.15,0010.30
